UK-DMC 2 (35683 NORAD) Tracking and Keplerian Element Data

This shows tracking and keplerian element data for the satellite.

Feedback or suggestion? Click here.




ElementValue
Catalog35683
NameUK-DMC 2
Epoch Orbit83318
Epoch Day35.16857493
Epoch Year2025
RAAN179.9443
Inclination97.8089
Eccentricity0.00015
Argument of Perigee87.1318
Mean Anonmoly273.0063
Mean Motion14.74630057
Decay Rate2.234E-05
L11 35683U 09041C 25035.16857493 .00002234 00000+0 34223-3 0 9994
L22 35683 97.8089 179.9443 0001500 87.1318 273.0063 14.74630057833180



Live tracking and technical data element details for UK-DMC 2 (NORAD 35683). UK-DMC 2 can be tracked NOW for your location showing map with azimuth and elevation plus other details from your city location.







IsCatalogInMostPopularTable: catalog: 35683, numindb: 293
Update: records affected: 1



GetName: 35683 UK-DMC 2

Hit Count: updated at: Thu, 15 May 2025 18:54:13 GMT